Regional Weather Roundup
Issued by NWS Charleston, SC

Current Version | Previous Version | Text Only | Print | Product List | Glossary Off
Versions: 1 2 3 4 5 6 7 8 9 10 11 12 13 14 15 16 17 18 19 20 21 22 23 24 25 26 27 28 29 30 31 32 33 34 35 36 37 38 39 40 41 42 43 44 45 46 47 48 49 50
000 ASUS42 KCHS 042212 RWRCHS REGIONAL WEATHER ROUNDUP NATIONAL WEATHER SERVICE CHARLESTON SC 600 PM EDT TUE AUG 04 2015 NOTE: "FAIR" INDICATES FEW OR NO CLOUDS BELOW 12,000 FEET WITH NO SIGNIFICANT WEATHER AND/OR OBSTRUCTIONS TO VISIBILITY. NOT ALL STATIONS ARE QUALITY CONTROLLED BY THE NATIONAL WEATHER SERVICE. USE DATA WITH CAUTION...ESPECIALLY DEWPOINT OBSERVATIONS. SCZ027-030-031-034>040-042>050-042300- ...SOUTHEAST SOUTH CAROLINA... CITY SKY/WX TMP DP RH WIND PRES REMARKS N CHARLESTON MOSUNNY 91 74 57 SW7 29.94S HX 100 WATERFRONT PRK N/A 86 79 79 S8 29.92S HX 99 MOUNT PLEASANT FAIR 88 79 74 S9 29.94S HX 102 JOHNS ISLAND FAIR 88 79 74 S13 29.95R HX 102 PINOPOLIS NOT AVBL MONCKS CORNER FAIR 91 73 55 SW5 29.93S HX 100 SUMMERVILLE FAIR 91 77 62 S5 29.95R HX 105 BEAUFORT MCAS MOSUNNY 91 79 67 VRB6 29.96R HX 107 BEAUFORT ARPT FAIR 86 79 79 S12G18 29.96R HAZE HX 99 HILTON HEAD IS MOSUNNY 88 79 74 S9 29.98F HX 102 WALTERBORO CLEAR 95 70 43 SW5 29.94S HX 101 ALLENDALE FAIR 93 72 49 S5 29.93S HX 100 ...SOUTHERN MIDLANDS AND PEE DEE... CITY SKY/WX TMP DP RH WIND PRES REMARKS GEORGETOWN NOT AVBL KINGSTREE NOT AVBL ORANGEBURG MOSUNNY 96 65 35 SW6 29.92S HX 98 BARNWELL FAIR 93 73 52 S7 29.94R HX 102 AIKEN FAIR 95 59 30 SW8 29.98R HX 94 MANNING RAIN 90 70 51 S3 29.92S HX 95 COLUMBIA MOSUNNY 101 55 21 VRB6 29.91R HX 99 SUMTER SUNNY 98 63 31 W6 29.90R HX 99 FLORENCE SUNNY 96 70 42 NE5 29.90S HX 102 MYRTLE BEACH PTSUNNY 90 75 62 S8 29.94 HX 100 N MYRTLE BEACH MOSUNNY 87 75 67 N7 29.92S HX 96 $$ GAZ063-065-086>088-099>101-113>116-118-119-134>141-150-042300- ...SOUTHEAST GEORGIA... CITY SKY/WX TMP DP RH WIND PRES REMARKS SAVANNAH ARPT MOSUNNY 94 70 45 W6 29.96S HX 100 HUNTER AAF MOSUNNY 90 81 76 S13 29.94S HX 109 FORT STEWART MOSUNNY 93 72 49 NW3 29.95 HX 100 STATESBORO SUNNY 95 76 55 S8 29.96S HX 108 SYLVANIA PTCLDY 96 75 50 SW7 29.96S HX 107 CLAXTON NOT AVBL ...CSRA...CENTRAL AND FAR SOUTHEAST GEORGIA... CITY SKY/WX TMP DP RH WIND PRES REMARKS THOMSON SUNNY 100 67 34 S3 29.98S HX 104 AUGUSTA-BUSH MOSUNNY 98 64 32 SE3 29.91S HX 100 AUGUSTA-DANIEL MOSUNNY 98 61 29 VRB5 29.94S HX 98 SWAINSBORO FAIR 97 72 44 S6 29.96S HX 105 VIDALIA SUNNY 91 72 52 SW10 29.98R HX 98 EASTMAN FAIR 93 70 46 S5 29.98F HX 99 HAZLEHURST FAIR 90 75 60 SW6 29.97S HX 100 ALMA MOSUNNY 85 73 67 S15 30.00R HX 91 WAYCROSS CLOUDY 83 76 79 SW10 30.02S HX 90 JESUP MOCLDY 88 77 70 SW6 30.00R HX 100 BAXLEY FAIR 90 73 58 S16G22 30.00R HX 98 BRUNSWICK CLOUDY 82 73 74 SW9 30.00S SAINT SIMONS CLOUDY 81 72 74 SW12G25 29.98F $$ SCZ027-028-034-036>038-045-046-048>050-GAZ119-141-042300- ...LAKE AND SUPPLEMENTAL COASTAL OBSERVATIONS... STATION/POSITION TIME TEMP WIND PRES WAVE SWELL AIR SEA DIR/SP/G HT/PER HT/PER/DIR (UTC) (F) (DEG/KT/KT) (MB) (FT/S) (FT/S/D) UPR LAKE MARION NOT AVBL WINYAH BAY NOT AVBL LAKE MURRAY 2100 95 180/ 5/ 9 1011.9F ACE BASIN NERRS 2045 90 240/ 2 1015.0 FORT PULASKI 2100 86 85 180/ 8/ 14 1015.5R SAPELO ISLAND 2100 87 160/ 11 1015.0S $$ ANZ835-935-AMZ111-154-330-350-352-354-370-450-454-472-042300- ...C-MAN AND BUOY OBSERVATIONS... STATION/POSITION TIME TEMP WIND PRES WAVE SWELL AIR SEA DIR/SP/G HT/PER HT/PER/DIR (UTC) (F) (DEG/KT/KT) (MB) (FT/S) (FT/S/D) BUOY 41004 2150 82 83 200/ 16/ 17 1014.1F 5/ 7 2/11 BUOY 41008 2150 83 84 210/ 14/ 16 1015.6F 3/ 6 2/120/ 8 FOLLY BEACH CMAN 2100 83 210/ 14/ 15 1014.4F CAPERS NEARSHORE 2108 83 230/ 14/ 17 1014.3F FRIPP NEARSHORE 2100 84 200/ 16/ 17 1014.5S STATION/POSITION TIME TEMP WIND PRES WAVE SWELL AIR SEA DIR/SP/G HT/PER HT/PER/DIR (UTC) (F) (DEG/KT/KT) (MB) (FT/S) (FT/S/D) 5E ST. MARYS GA 2121 83 N/A 3/ 5 FRYING PAN BUOY 2150 82 81 210/ 16/ 19 1014.0F 8/ 8 BUOY 41025 2150 80 84 180/ 17/ 19 1016.1F 5/ 5 2/120/11 CAPE LOOKOUT NC 2100 80 200/ 8/ 11 1015.0F BUOY 41002 2150 83 81 190/ 14/ 16 1018.3F 6/ 7 3/250/ 7 BUOY 41010 2120 84 85 200/ 10/ 12 1017.8F ST AUGUSTINE FL 2200 81 78 240/ 6/ 8 1017.8R $$

USA.gov is the U.S. government's official web portal to all federal, state and local government web resources and services.